Weather History for Sofia, Bulgaria

Change the Weather History Date:

Thursday, November 29, 2012

  Actual Average Record
Temperature  
Mean Temperature 50 °F -  
Max Temperature 59 °F 39 °F 69 °F (2010)
Min Temperature 42 °F 27 °F 17 °F (2007)
Degree Days  
Heating Degree Days 14    
Moisture  
Dew Point 46 °F    
Average Humidity 81    
Maximum Humidity 94    
Minimum Humidity 48    
Precipitation  
Precipitation 0.24 in 0.06 in - ()
Sea Level Pressure  
Sea Level Pressure 29.63 in    
Wind  
Wind Speed 6 mph ()    
Max Wind Speed 25 mph    
Max Gust Speed 36 mph    
Visibility 5.8 miles    
Events Rain    
Averages and records for this station are not official NWS values.
T = Trace of Precipitation, MM = Missing Value Source: Averaged Metar Reports

Daily Weather History Graph

Daily Weather History Graph

Search for Another Location

Airport:

Trip Planner

Search our weather history database for the weather conditions in past years. The results will help you decide how hot, cold, wet, or windy it might be!

Date:

Astronomy

Nov. 29, 2012 Rise Set
Actual Time 7:34 AM EET 4:54 PM EET
Civil Twilight 7:03 AM EET 5:26 PM EET
Nautical Twilight 6:28 AM EET 6:01 PM EET
Astronomical Twilight 5:54 AM EET 6:34 PM EET
Moon 5:41 PM EET (11/29) 8:06 AM EET (11/29)
Length of Visible Light 10h 22m
Length of Day
9h 19m
Waxing Gibbous, 99% of the Moon is Illuminated
Nov 29
Waxing Gibbous
Dec 6
Last Quarter
Dec 13
New
Dec 20
First Quarter
Dec 28
Full

Hourly Weather History & Observations

Time (EET) Temp. Windchill Dew Point Humidity Pressure Visibility Wind Dir Wind Speed Gust Speed Precip Events Conditions
12:00 AM 50.0 °F - 42.8 °F 76% 29.80 in 6.2 mi ESE 13.4 mph - N/A   Partly Cloudy
12:30 AM 48.2 °F - 41.0 °F 76% 29.80 in 6.2 mi Variable 4.5 mph - N/A   Partly Cloudy
1:00 AM 48.2 °F - 41.0 °F 76% 29.77 in 6.2 mi SSE 6.7 mph - N/A   Partly Cloudy
1:30 AM 48.2 °F - 42.8 °F 82% 29.77 in - SE 11.2 mph - N/A   Clear
2:00 AM 43 °F - 38 °F 77% 29.78 in 6 mi Calm Calm - -   Partly Cloudy
2:00 AM 42.8 °F 40.2 °F 41.0 °F 93% 29.74 in 5.0 mi Variable 4.5 mph - N/A   Unknown
2:30 AM 42.8 °F - 41.0 °F 93% 29.74 in 5.0 mi Variable 2.2 mph - N/A   Unknown
3:00 AM 42.8 °F 40.2 °F 41.0 °F 93% 29.74 in 4.3 mi Variable 4.5 mph - N/A   Unknown
3:30 AM 42.8 °F 40.2 °F 41.0 °F 93% 29.74 in 5.6 mi Variable 4.5 mph - N/A   Partly Cloudy
4:00 AM 42.8 °F 40.2 °F 41.0 °F 93% 29.74 in 5.0 mi Variable 4.5 mph - N/A   Partly Cloudy
4:30 AM 46.4 °F - 42.8 °F 87% 29.71 in 5.6 mi Variable 2.2 mph - N/A   Unknown
5:00 AM 46 °F - 41 °F 75% 29.74 in 6 mi Calm Calm - -   Partly Cloudy
5:00 AM 48.2 °F - 44.6 °F 87% 29.71 in - Variable 4.5 mph - N/A   Clear
5:30 AM 48.2 °F - 42.8 °F 82% 29.71 in - Calm Calm - N/A   Clear
6:00 AM 48.2 °F - 44.6 °F 87% 29.71 in - East 6.7 mph - N/A   Clear
6:30 AM 48.2 °F - 44.6 °F 87% 29.68 in - Variable 4.5 mph - N/A   Clear
7:00 AM 48.2 °F - 44.6 °F 87% 29.68 in - West 6.7 mph - N/A   Clear
7:30 AM 48.2 °F - 44.6 °F 87% 29.68 in - Variable 4.5 mph - N/A   Clear
8:00 AM 47 °F - 42 °F 76% 29.71 in 9 mi WSW 2.2 mph - -   Mostly Cloudy
8:00 AM 46.4 °F - 44.6 °F 93% 29.68 in 5.0 mi Variable 2.2 mph - N/A   Scattered Clouds
8:30 AM 48.2 °F - 44.6 °F 87% 29.68 in 2.5 mi Variable 4.5 mph - N/A   Scattered Clouds
9:00 AM 48.2 °F - 44.6 °F 87% 29.65 in 4.3 mi Variable 2.2 mph - N/A   Scattered Clouds
9:30 AM 50.0 °F - 46.4 °F 87% 29.65 in 4.3 mi West 4.5 mph - N/A   Scattered Clouds
10:00 AM 55.4 °F - 48.2 °F 77% 29.65 in 5.0 mi Variable 2.2 mph - N/A   Scattered Clouds
10:30 AM 57.2 °F - 48.2 °F 72% 29.62 in 6.2 mi Variable 4.5 mph - N/A   Light Drizzle
11:00 AM 52 °F - 45 °F 69% 29.63 in 8 mi Calm Calm - - Rain Light Rain Showers
11:00 AM 59.0 °F - 48.2 °F 67% 29.62 in 6.2 mi East 8.9 mph - N/A   Mostly Cloudy
11:30 AM 59.0 °F - 48.2 °F 67% 29.62 in 6.2 mi South 6.7 mph - N/A   Mostly Cloudy
12:00 PM 57.2 °F - 46.4 °F 67% 29.59 in 6.2 mi Variable 4.5 mph - N/A Rain Light Rain
12:30 PM 57.2 °F - 48.2 °F 72% 29.59 in 6.2 mi SE 8.9 mph - N/A Rain Light Rain
1:00 PM 55.4 °F - 48.2 °F 77% 29.59 in 3.7 mi Variable 4.5 mph - N/A Rain Light Rain
1:30 PM 53.6 °F - 50.0 °F 88% 29.59 in 2.5 mi Variable 4.5 mph - N/A Rain Rain
2:00 PM 52 °F - 49 °F 85% 29.57 in 5 mi Calm Calm - - Rain Heavy Rain Showers
2:00 PM 55.4 °F - 53.6 °F 94% 29.56 in 3.1 mi NE 8.9 mph - N/A Rain Rain
2:30 PM 55.4 °F - 53.6 °F 94% 29.56 in 5.0 mi NE 8.9 mph - N/A Rain Light Rain
3:00 PM 55.4 °F - 53.6 °F 94% 29.56 in 6.2 mi ENE 11.2 mph - N/A   Mostly Cloudy
3:30 PM 55.4 °F - 53.6 °F 94% 29.53 in 6.2 mi East 15.7 mph - N/A   Mostly Cloudy
4:00 PM 55.4 °F - 53.6 °F 94% 29.50 in 6.2 mi East 17.9 mph - N/A   Mostly Cloudy
4:30 PM 57.2 °F - 53.6 °F 88% 29.50 in 6.2 mi East 15.7 mph - N/A   Mostly Cloudy
5:00 PM 54 °F - 49 °F 77% 29.51 in 9 mi East 4.5 mph - -   Partly Cloudy
5:00 PM 55.4 °F - 51.8 °F 88% 29.50 in 6.2 mi East 6.7 mph - N/A   Mostly Cloudy
5:30 PM 55.4 °F - 51.8 °F 88% 29.50 in 6.2 mi North 6.7 mph - N/A   Drizzle
6:00 PM 51.8 °F - 48.2 °F 88% 29.53 in 6.2 mi West 15.7 mph 26.8 mph N/A Rain Light Rain Showers
6:30 PM 51.8 °F - 48.2 °F 88% 29.53 in 5.0 mi West 24.6 mph 35.8 mph N/A Rain Rain Showers
7:00 PM 51.8 °F - 46.4 °F 82% 29.53 in 5.0 mi SW 6.7 mph - N/A Rain Light Rain Showers
7:30 PM 55.4 °F - 48.2 °F 77% 29.53 in 6.2 mi West 11.2 mph - N/A Rain Light Rain
8:00 PM 51 °F - 44 °F 71% 29.56 in 6 mi Calm Calm - - Rain Light Rain Showers
8:00 PM 53.6 °F - 48.2 °F 82% 29.56 in 6.2 mi Variable 4.5 mph 17.9 mph N/A Rain Light Rain
8:30 PM 53.6 °F - 46.4 °F 77% 29.56 in 6.2 mi SSW 8.9 mph - N/A Rain Light Rain
9:00 PM 55.4 °F - 46.4 °F 72% 29.56 in 6.2 mi South 17.9 mph - N/A   Mostly Cloudy
9:30 PM 51.8 °F - 44.6 °F 76% 29.56 in 6.2 mi WNW 11.2 mph - N/A   Mostly Cloudy
10:00 PM 57.2 °F - 41.0 °F 55% 29.56 in 6.2 mi WNW 11.2 mph 31.3 mph N/A   Scattered Clouds
10:30 PM 59.0 °F - 39.2 °F 48% 29.59 in - WSW 11.2 mph - N/A   Clear
11:00 PM 47 °F - 42 °F 76% 29.62 in 12 mi Calm Calm - -   Partly Cloudy
11:00 PM 57.2 °F - 37.4 °F 48% 29.59 in 6.2 mi SW 15.7 mph 26.8 mph N/A   Scattered Clouds
11:30 PM 50.0 °F - 39.2 °F 66% 29.59 in 6.2 mi SSW 13.4 mph - N/A   Partly Cloudy